[[{"header":{"parameterUnit":"m.s-1","parameterCategory":1,"la1":30.2991,"la2":30.254,"lo1":-89.0895,"lo2":-89.0444,"dy":0.0017,"dx":0.0017,"nx":28,"ny":28,"refTime":"2025-04-08T03:00:00:Z","depth":0,"parameterNumber":2,"parameterNumberName":"U-component_of_WINDS"},"data":[0,0,0,0,0,0,0,0,0,0,0,0,0,0,0,0,0,0,0,0,0,0,0,0,0,0,0,0,0,0,0,0,0,0,0,0,0,0,0,0,0,0,0,0,0,0,0,0,0,0,0,0,0,0,0,0,0,0,0.2835,0.2836,0,0.2895,0.2895,0.2896,0.2933,0.2933,0.2933,0.2933,0.2994,0.2995,0.2997,0,0,0,0,0,0,0,0,0,0,0,0,0,0.2752,0.2754,0.2835,0.2836,0.2836,0.2895,0.2895,0.2896,0.2933,0.2933,0.2933,0.2933,0.2993,0.2995,0.2997,0,0,0,0,0,0,0,0,0,0,0,0,0,0.2798,0.2754,0.2835,0.2862,0.2865,0.2894,0.2895,0.2896,0.2933,0.2933,0.2933,0.2934,0.2993,0.2995,0.2997,0.3005,0,0,0.3004,0.3005,0,0,0,0,0,0,0,0,0.2795,0.2801,0.2857,0.286,0.2863,0.2907,0.2889,0.2933,0.2933,0.2907,0.2933,0.2934,0.2965,0.2969,0.298,0.3007,0.301,0.3004,0.3005,0.3006,0.3007,0,0,0,0,0,0,0,0.2792,0.2798,0.2859,0.2858,0.2862,0.2871,0.2878,0.2897,0.2933,0.2909,0.2912,0.2919,0.2966,0.2977,0.2981,0.3011,0.3004,0.3006,0.3007,0.3008,0.3049,0.3048,0,0,0,0,0,0,0.2785,0.2796,0.2857,0.286,0.2829,0.2872,0.288,0.2892,0.2933,0.294,0.2918,0.292,0.2974,0.2979,0.2984,0.2995,0.3006,0.3008,0.3009,0.3049,0.3049,0.3048,0,0,0,0,0,0,0.2783,0.279,0.2854,0.2829,0.2838,0.2873,0.2887,0.2893,0.2905,0.294,0.2947,0.2923,0.2974,0.2981,0.2999,0.2998,0.3009,0.3011,0.3049,0.3049,0.3048,0.3019,0,0,0,0,0,0,0.278,0.2789,0.2792,0.2829,0.2839,0.2869,0.2887,0.2894,0.2908,0.2911,0.2946,0.2952,0.2975,0.2996,0.3001,0.3001,0.3013,0.3049,0.3049,0.3049,0.302,0.3018,0.3015,0,0,0,0,0,0.2777,0.2781,0.2792,0.2799,0.2844,0.2869,0.2875,0.2901,0.2908,0.2912,0.2935,0.2951,0.2997,0.2997,0.3004,0.3004,0.3049,0.3049,0.3049,0.3021,0.3018,0.3015,0,0,0,0,0,0,0.2743,0.2786,0.2799,0.2815,0.2838,0.2875,0.288,0.2896,0.2918,0.2919,0.2951,0.2958,0.2974,0.2991,0.2991,0.3014,0.3025,0.3026,0.3002,0.3,0.2997,0.2993,0.3014,0,0,0,0,0,0.2737,0.2754,0.2791,0.2801,0.2812,0.2844,0.2856,0.2874,0.2899,0.2909,0.2933,0.2957,0.2977,0.2989,0.301,0.3023,0.3031,0.3026,0.3024,0.3022,0.3022,0.3031,0.3029,0.3047,0.3047,0.3047,0,0,0.2725,0.2751,0.276,0.2795,0.2815,0.2832,0.2852,0.2869,0.2882,0.2912,0.2931,0.295,0.2978,0.2994,0.3003,0.3009,0.3019,0.3021,0.3019,0.3021,0.303,0.3029,0.3027,0.3046,0.3047,0.3047,0,0,0.2713,0.2734,0.2745,0.2765,0.2795,0.2817,0.2819,0.2854,0.2868,0.2888,0.2911,0.2926,0.296,0.2979,0.2994,0.2989,0.3006,0.2995,0.2983,0.2991,0.2989,0.2988,0.2987,0.2986,0.2995,0.2995,0.2995,0,0.2694,0.2721,0.2749,0.2765,0.278,0.2808,0.282,0.2837,0.2873,0.2882,0.2889,0.2932,0.2953,0.2975,0.2974,0.2984,0.2988,0.2991,0.2987,0.2987,0.2986,0.2985,0.2984,0.2994,0.2994,0.2994,0.2994,0,0.2697,0.2715,0.272,0.2754,0.277,0.2783,0.2813,0.2826,0.2843,0.2863,0.2883,0.291,0.2936,0.2943,0.2959,0.2966,0.297,0.2981,0.2993,0.2982,0.2982,0.2982,0.2992,0.2992,0.2993,0.2993,0,0,0.2664,0.2713,0.2715,0.2731,0.2767,0.2781,0.2796,0.2822,0.2832,0.2856,0.2869,0.2897,0.2909,0.2925,0.2944,0.2951,0.2946,0.2962,0.2964,0.2958,0.2956,0.2947,0.2946,0.2957,0.2957,0.2958,0.2954,0,0.2656,0.2685,0.2711,0.273,0.2747,0.2775,0.2788,0.2811,0.2831,0.2848,0.287,0.289,0.2903,0.2913,0.2922,0.2945,0.2946,0.2946,0.297,0.2971,0.2962,0.2946,0.2936,0.2931,0.2954,0.2954,0.2954,0,0.2651,0.2674,0.2695,0.273,0.2738,0.2749,0.2776,0.2792,0.2819,0.2833,0.2851,0.2872,0.2889,0.2899,0.2924,0.2923,0.2934,0.2947,0.2948,0.2951,0.2961,0.2948,0.293,0.2929,0.2954,0.2954,0.2954,0,0.2625,0.2661,0.2678,0.2691,0.2732,0.2739,0.2757,0.2784,0.2799,0.2822,0.2831,0.2856,0.2869,0.2888,0.2914,0.2919,0.2936,0.2948,0.2947,0.2947,0.2949,0.2949,0.2933,0.2957,0.2957,0.2957,0.2957,0,0.2614,0.2626,0.2667,0.2678,0.2692,0.2722,0.2735,0.2755,0.2779,0.2794,0.2819,0.2833,0.2867,0.2885,0.2905,0.2922,0.2928,0.294,0.2945,0.2937,0.2936,0.2945,0.2946,0.2957,0.2957,0.2957,0.2957,0,0.2587,0.2615,0.2636,0.2673,0.2683,0.2692,0.2724,0.2735,0.2756,0.2775,0.2781,0.2815,0.2837,0.2865,0.2896,0.291,0.2924,0.2933,0.2915,0.2918,0.2916,0.2916,0.2905,0.2905,0.293,0.2929,0.2929,0,0.2578,0.2588,0.2626,0.2638,0.2655,0.2674,0.2689,0.2719,0.2733,0.2765,0.2773,0.2797,0.2818,0.2852,0.2879,0.2903,0.2912,0.2906,0.2915,0.2907,0.2911,0.291,0.2912,0.2904,0.2903,0.2903,0.2903,0,0.2559,0.2573,0.2593,0.2619,0.2636,0.2657,0.268,0.2688,0.2723,0.2738,0.2761,0.2777,0.2809,0.2832,0.286,0.2878,0.2896,0.29,0.2901,0.2893,0.2882,0.2888,0.2909,0.29,0.29,0.29,0.2901,0.2901,0.2541,0.2551,0.258,0.2602,0.2622,0.2643,0.2655,0.2679,0.2699,0.2727,0.2744,0.2766,0.2794,0.2833,0.285,0.2868,0.2875,0.2876,0.2877,0.2877,0.2874,0.288,0.2873,0.2873,0.2873,0.2873,0.2873,0,0.2523,0.2543,0.2563,0.2594,0.2612,0.2628,0.2654,0.2667,0.2687,0.2711,0.2731,0.2758,0.2781,0.281,0.2836,0.2844,0.2853,0.285,0.2849,0.2853,0.2867,0.2863,0.2842,0.2842,0.2842,0.2842,0.2842,0.2842,0.2516,0.2534,0.2551,0.258,0.26,0.2622,0.2636,0.2655,0.2674,0.2703,0.2723,0.2742,0.2768,0.2795,0.2817,0.2826,0.2833,0.2827,0.2838,0.285,0.2852,0.2855,0.2852,0.2829,0.2829,0.2823,0.2823,0.2823]},{"header":{"parameterUnit":"m.s-1","parameterCategory":1,"la1":30.2991,"la2":30.254,"lo1":-89.0895,"lo2":-89.0444,"dy":0.0017,"dx":0.0017,"nx":28,"ny":28,"refTime":"2025-04-08T03:00:00:Z","depth":0,"parameterNumber":3,"parameterNumberName":"V-component_of_WINDS"},"data":[0,0,0,0,0,0,0,0,0,0,0,0,0,0,0,0,0,0,0,0,0,0,0,0,0,0,0,0,0,0,0,0,0,0,0,0,0,0,0,0,0,0,0,0,0,0,0,0,0,0,0,0,0,0,0,0,0,0,-2.9763,-2.9763,0,-2.9796,-2.9797,-2.9797,-2.9805,-2.9805,-2.9805,-2.9805,-2.9836,-2.9837,-2.9838,0,0,0,0,0,0,0,0,0,0,0,0,0,-2.9706,-2.9707,-2.9763,-2.9763,-2.9764,-2.9796,-2.9797,-2.9797,-2.9805,-2.9805,-2.9805,-2.9805,-2.9836,-2.9837,-2.9838,0,0,0,0,0,0,0,0,0,0,0,0,0,-2.9734,-2.9707,-2.9763,-2.9772,-2.9773,-2.9796,-2.9797,-2.9797,-2.9805,-2.9805,-2.9805,-2.9804,-2.9835,-2.9837,-2.9838,-2.9854,0,0,-2.9843,-2.9844,0,0,0,0,0,0,0,0,-2.9732,-2.9736,-2.977,-2.9771,-2.9773,-2.9796,-2.9788,-2.9816,-2.9805,-2.9793,-2.9805,-2.9804,-2.9823,-2.9825,-2.9832,-2.9855,-2.9857,-2.9843,-2.9844,-2.9845,-2.9845,0,0,0,0,0,0,0,-2.973,-2.9735,-2.9776,-2.9771,-2.9772,-2.9774,-2.9778,-2.9793,-2.9809,-2.9794,-2.9795,-2.9799,-2.9823,-2.9831,-2.9833,-2.9857,-2.9843,-2.9844,-2.9845,-2.9846,-2.9897,-2.9897,0,0,0,0,0,0,-2.9727,-2.9733,-2.9775,-2.9777,-2.9751,-2.9775,-2.9779,-2.9789,-2.9809,-2.9812,-2.9799,-2.9799,-2.9828,-2.9831,-2.9834,-2.9855,-2.9845,-2.9846,-2.9847,-2.9897,-2.9897,-2.9898,0,0,0,0,0,0,-2.9726,-2.9731,-2.9774,-2.9755,-2.9761,-2.9777,-2.9787,-2.979,-2.9797,-2.9813,-2.9815,-2.9804,-2.9828,-2.9832,-2.985,-2.9857,-2.9847,-2.9848,-2.9896,-2.9897,-2.9897,-2.9897,0,0,0,0,0,0,-2.9724,-2.973,-2.9736,-2.9755,-2.9762,-2.9789,-2.9788,-2.9791,-2.98,-2.98,-2.9818,-2.982,-2.9828,-2.9847,-2.9851,-2.9859,-2.9849,-2.9896,-2.9896,-2.9897,-2.9897,-2.9898,-2.9899,0,0,0,0,0,-2.9722,-2.9734,-2.9737,-2.9742,-2.977,-2.9789,-2.9793,-2.9802,-2.98,-2.9807,-2.9817,-2.982,-2.9855,-2.9849,-2.9853,-2.9861,-2.9895,-2.9896,-2.9897,-2.9896,-2.9897,-2.9899,0,0,0,0,0,0,-2.9714,-2.9736,-2.974,-2.9758,-2.9772,-2.9791,-2.9799,-2.9803,-2.9817,-2.9816,-2.9827,-2.9831,-2.9848,-2.9856,-2.9849,-2.9879,-2.9875,-2.9877,-2.9873,-2.9874,-2.9875,-2.9873,-2.9851,0,0,0,0,0,-2.9714,-2.9728,-2.9747,-2.9761,-2.9768,-2.9783,-2.9791,-2.9798,-2.9812,-2.9817,-2.9829,-2.9842,-2.9857,-2.9866,-2.988,-2.9898,-2.9902,-2.9906,-2.9907,-2.9907,-2.9909,-2.9921,-2.9923,-2.9901,-2.9901,-2.9901,0,0,-2.9715,-2.9729,-2.9737,-2.976,-2.9772,-2.9787,-2.9787,-2.9802,-2.9813,-2.9819,-2.9838,-2.9847,-2.9862,-2.9881,-2.989,-2.9888,-2.9916,-2.9909,-2.9909,-2.991,-2.9923,-2.9925,-2.9927,-2.9902,-2.9901,-2.9901,0,0,-2.9724,-2.9735,-2.975,-2.9762,-2.978,-2.979,-2.9793,-2.9812,-2.9819,-2.9838,-2.9843,-2.9856,-2.988,-2.9892,-2.9901,-2.9917,-2.992,-2.9921,-2.9927,-2.9939,-2.994,-2.9942,-2.995,-2.9952,-2.9923,-2.9923,-2.9923,0,-2.9722,-2.9745,-2.9756,-2.9772,-2.9783,-2.9791,-2.9806,-2.9817,-2.9838,-2.9845,-2.9843,-2.9875,-2.9886,-2.9909,-2.9913,-2.9919,-2.9925,-2.9919,-2.9939,-2.9941,-2.9943,-2.995,-2.9953,-2.9923,-2.9923,-2.9923,-2.9923,0,-2.9743,-2.9759,-2.9768,-2.9791,-2.9802,-2.9817,-2.9831,-2.9842,-2.9848,-2.9858,-2.9877,-2.9891,-2.9909,-2.9915,-2.9919,-2.9938,-2.9937,-2.9937,-2.9934,-2.9945,-2.9952,-2.9955,-2.9923,-2.9923,-2.9923,-2.9923,0,0,-2.9746,-2.9777,-2.978,-2.9791,-2.9813,-2.9825,-2.9841,-2.986,-2.987,-2.9885,-2.9899,-2.992,-2.9921,-2.9932,-2.9938,-2.9949,-2.9963,-2.9948,-2.9948,-2.9951,-2.9987,-2.9988,-2.999,-2.9965,-2.9966,-2.9966,-2.9986,0,-2.9758,-2.9789,-2.9801,-2.9825,-2.9841,-2.985,-2.9864,-2.9879,-2.9889,-2.9904,-2.9915,-2.9931,-2.993,-2.9937,-2.9947,-2.9959,-2.997,-2.9958,-2.9979,-2.998,-2.9976,-2.9994,-2.9994,-3.0012,-2.9989,-2.9989,-2.9989,0,-2.9777,-2.9794,-2.9821,-2.9843,-2.985,-2.9863,-2.9883,-2.9897,-2.9914,-2.9921,-2.9934,-2.9941,-2.9958,-2.9954,-2.9979,-2.997,-2.998,-2.9987,-2.9988,-2.9991,-2.9986,-2.9998,-3.0018,-3.0021,-2.9993,-2.9993,-2.9993,0,-2.9778,-2.9808,-2.9829,-2.9838,-2.9864,-2.9873,-2.9884,-2.9902,-2.9913,-2.993,-2.9938,-2.9956,-2.9966,-2.998,-2.9992,-2.9987,-3.0017,-3.0013,-3.0023,-3.0023,-3.0029,-3.0029,-3.0052,-3.0034,-3.0034,-3.0034,-3.0034,0,-2.9792,-2.9808,-2.983,-2.9843,-2.9862,-2.9876,-2.9894,-2.9906,-2.9922,-2.9937,-2.9945,-2.9959,-2.9973,-2.9989,-2.9998,-3.0019,-3.0023,-3.0029,-3.0032,-3.0029,-3.0029,-3.0036,-3.0036,-3.0034,-3.0034,-3.0034,-3.0034,0,-2.9796,-2.9812,-2.9835,-2.9859,-2.9866,-2.9879,-2.9899,-2.9912,-2.9923,-2.9943,-2.9948,-2.9966,-2.9985,-2.9999,-3.0023,-3.0029,-3.0052,-3.0053,-3.0047,-3.0048,-3.0059,-3.0058,-3.0088,-3.0093,-3.007,-3.007,-3.0071,0,-2.9804,-2.9817,-2.9844,-2.9855,-2.9867,-2.9885,-2.9898,-2.9913,-2.9925,-2.9948,-2.9959,-2.9979,-2.9996,-3.0027,-3.0042,-3.0061,-3.0064,-3.0073,-3.0067,-3.0065,-3.0066,-3.0066,-3.0068,-3.0074,-3.0075,-3.0075,-3.0075,0,-2.9817,-2.9825,-2.9843,-2.9865,-2.9881,-2.9898,-2.9916,-2.9925,-2.9942,-2.9956,-2.9978,-2.9991,-3.0018,-3.0039,-3.006,-3.0071,-3.0076,-3.0077,-3.0081,-3.0079,-3.0075,-3.0079,-3.0051,-3.0076,-3.0076,-3.0076,-3.0076,-3.0076,-2.9824,-2.9837,-2.9859,-2.988,-2.9896,-2.9912,-2.9927,-2.9941,-2.996,-2.9983,-2.9991,-3.0013,-3.0032,-3.0062,-3.0074,-3.0092,-3.0091,-3.0095,-3.0097,-3.0098,-3.0099,-3.0072,-3.0095,-3.0095,-3.0095,-3.0095,-3.0095,0,-2.9839,-2.9854,-2.9873,-2.9899,-2.9916,-2.9921,-2.9942,-2.9955,-2.9976,-2.9994,-3.0012,-3.0037,-3.0058,-3.0075,-3.0097,-3.0108,-3.0111,-3.0113,-3.0113,-3.0116,-3.0098,-3.0093,-3.0111,-3.0111,-3.0111,-3.0111,-3.0111,-3.0111,-2.9848,-2.9872,-2.9883,-2.9914,-2.9929,-2.9953,-2.9964,-2.998,-2.9995,-3.0024,-3.0042,-3.0054,-3.0073,-3.0096,-3.0116,-3.012,-3.0128,-3.013,-3.0136,-3.0119,-3.0117,-3.0115,-3.0111,-3.0132,-3.0132,-3.0152,-3.0153,-3.0153]}]]